Appleton, MN

10:55 PM CDT on September 25, 2017 (GMT -0500)
Appleton Municipal

Weather History for KAQP - January, 2012

Change the Weather History Date:

Saturday, January 28, 2012

  Actual Average Record
Temperature  
Mean Temperature 23 °F -  
Max Temperature 32 °F 20 °F 41 °F (2008)
Min Temperature 14 °F 4 °F -20 °F (1997)
Degree Days  
Heating Degree Days 42    
Moisture  
Dew Point 12 °F    
Average Humidity 64    
Maximum Humidity 93    
Minimum Humidity 41    
Precipitation  
Precipitation 0.00 in - - ()
Sea Level Pressure  
Sea Level Pressure 29.99 in    
Wind  
Wind Speed 13 mph (WNW)    
Max Wind Speed 20 mph    
Max Gust Speed 22 mph    
Visibility 10 miles    
Events Snow    
Averages and records for this station are not official NWS values.
T = Trace of Precipitation, MM = Missing Value Source: NWS Daily Summary

Daily Weather History Graph

Daily Weather History Graph

Search for Another Location

Airport or City:

Trip Planner

Search our weather history database for the weather conditions in past years. The results will help you decide how hot, cold, wet, or windy it might be!

Date:

Astronomy

Jan. 28, 2012 Rise Set
Actual Time 7:49 AM CST 5:25 PM CST
Civil Twilight 7:17 AM CST 5:56 PM CST
Nautical Twilight 6:41 AM CST 6:32 PM CST
Astronomical Twilight 6:07 AM CST 7:07 PM CST
Moon 9:53 AM CST (1/28) 11:34 PM CST (1/28)
Length of Visible Light 10h 39m
Length of Day
9h 35m
Waxing Crescent, 28% of the Moon is Illuminated
Jan 28
Waxing Crescent
Jan 30
First Quarter
Feb 7
Full
Feb 14
Last Quarter
Feb 21
New

Hourly Weather History & Observations

Time (CST) Temp. Windchill Dew Point Humidity Pressure Visibility Wind Dir Wind Speed Gust Speed Precip Events Conditions
12:15 AM 23.0 °F 10.6 °F 14.0 °F 68% 29.98 in 10.0 mi West 13.8 mph - N/A   Clear
12:35 AM 23.0 °F 8.3 °F 14.0 °F 68% 29.98 in 10.0 mi WNW 19.6 mph - N/A   Clear
12:55 AM 21.2 °F 7.3 °F 12.2 °F 68% 29.97 in 10.0 mi WNW 16.1 mph 20.7 mph N/A   Clear
1:14 AM 21.2 °F 8.3 °F 12.2 °F 68% 29.97 in 10.0 mi WNW 13.8 mph - N/A   Clear
1:35 AM 21.2 °F 8.9 °F 12.2 °F 68% 29.98 in 10.0 mi West 12.7 mph - N/A   Scattered Clouds
1:54 AM 21.2 °F 7.8 °F 14.0 °F 74% 29.98 in 10.0 mi West 15.0 mph - N/A   Overcast
2:14 AM 21.2 °F 7.8 °F 12.2 °F 68% 29.98 in 10.0 mi West 15.0 mph - N/A   Mostly Cloudy
2:34 AM 21.2 °F 8.3 °F 12.2 °F 68% 29.98 in 10.0 mi West 13.8 mph - N/A   Scattered Clouds
2:55 AM 19.4 °F 5.5 °F 12.2 °F 74% - 10.0 mi West 15.0 mph - N/A   Clear
3:14 AM 19.4 °F 5.5 °F 12.2 °F 74% 29.98 in 10.0 mi West 15.0 mph - N/A   Clear
3:34 AM 19.4 °F 5.0 °F 12.2 °F 74% 29.98 in 10.0 mi West 16.1 mph 21.9 mph N/A   Clear
3:55 AM 19.4 °F 5.0 °F 12.2 °F 74% 29.98 in 10.0 mi West 16.1 mph - N/A   Clear
4:35 AM 19.4 °F 5.0 °F 12.2 °F 74% 29.99 in 10.0 mi West 16.1 mph - N/A   Clear
4:55 AM 17.6 °F 5.0 °F 10.4 °F 73% 29.98 in 10.0 mi West 11.5 mph - N/A   Clear
5:14 AM 17.6 °F 4.3 °F 10.4 °F 73% 29.98 in 10.0 mi West 12.7 mph - N/A   Clear
5:34 AM 17.6 °F 5.0 °F 10.4 °F 73% 29.98 in 10.0 mi West 11.5 mph - N/A   Clear
5:54 AM 17.6 °F 3.7 °F 10.4 °F 73% 29.98 in 10.0 mi West 13.8 mph - N/A   Clear
6:14 AM 17.6 °F 3.2 °F 10.4 °F 73% 29.99 in 10.0 mi West 15.0 mph - N/A   Clear
6:35 AM 17.6 °F 5.7 °F 10.4 °F 73% 29.99 in 10.0 mi West 10.4 mph - N/A   Clear
6:55 AM 15.8 °F 2.7 °F 10.4 °F 79% 29.99 in 10.0 mi West 11.5 mph - N/A   Clear
7:14 AM 15.8 °F 2.7 °F 8.6 °F 73% 30.00 in 10.0 mi West 11.5 mph - N/A   Clear
7:34 AM 14.0 °F 0.5 °F 8.6 °F 79% 30.00 in 10.0 mi West 11.5 mph - N/A   Clear
7:54 AM 14.0 °F 1.2 °F 8.6 °F 79% 30.00 in 10.0 mi West 10.4 mph - N/A   Clear
8:14 AM 15.8 °F 2.7 °F 8.6 °F 73% 30.00 in 10.0 mi West 11.5 mph - N/A   Clear
8:34 AM 15.8 °F 5.1 °F 10.4 °F 79% 30.01 in 10.0 mi West 8.1 mph - N/A   Clear
8:54 AM 17.6 °F 6.4 °F 10.4 °F 73% 30.01 in 10.0 mi West 9.2 mph - N/A   Clear
9:14 AM 17.6 °F 6.4 °F 10.4 °F 73% 30.01 in 10.0 mi West 9.2 mph - N/A   Clear
9:35 AM 19.4 °F 8.6 °F 12.2 °F 74% 30.00 in 10.0 mi West 9.2 mph - N/A   Clear
10:14 AM 24.8 °F 13.4 °F 12.2 °F 59% 30.01 in 10.0 mi WNW 12.7 mph - N/A   Clear
10:34 AM 24.8 °F 12.4 °F 12.2 °F 59% 30.01 in 10.0 mi WNW 15.0 mph - N/A   Clear
10:54 AM 26.6 °F 15.7 °F 12.2 °F 55% 30.01 in 10.0 mi WNW 12.7 mph - N/A   Clear
11:14 AM 26.6 °F 15.7 °F 12.2 °F 55% 30.02 in 10.0 mi WNW 12.7 mph - N/A   Scattered Clouds
11:34 AM 26.6 °F 15.2 °F 12.2 °F 55% 30.01 in 10.0 mi West 13.8 mph - N/A   Mostly Cloudy
11:55 AM 28.4 °F 17.5 °F 12.2 °F 51% 30.00 in 10.0 mi WNW 13.8 mph - N/A   Mostly Cloudy
12:15 PM 28.4 °F 17.0 °F 10.4 °F 47% 30.00 in 10.0 mi WNW 15.0 mph - N/A   Mostly Cloudy
12:35 PM 28.4 °F 17.0 °F 12.2 °F 51% 29.99 in 10.0 mi West 15.0 mph 18.4 mph N/A   Clear
12:55 PM 30.2 °F 18.9 °F 12.2 °F 47% 29.99 in 10.0 mi WNW 16.1 mph - N/A   Scattered Clouds
1:15 PM 30.2 °F 18.5 °F 12.2 °F 47% 29.99 in 10.0 mi WNW 17.3 mph - N/A   Overcast
1:35 PM 28.4 °F 18.5 °F 12.2 °F 51% 29.99 in 10.0 mi WNW 11.5 mph 19.6 mph N/A   Overcast
1:54 PM 30.2 °F 20.2 °F 12.2 °F 47% 29.98 in 10.0 mi WNW 12.7 mph 17.3 mph N/A   Overcast
2:15 PM 30.2 °F 20.2 °F 12.2 °F 47% 29.97 in 10.0 mi WNW 12.7 mph - N/A   Overcast
2:35 PM 30.2 °F 20.8 °F 14.0 °F 51% 29.98 in 10.0 mi WNW 11.5 mph - N/A   Mostly Cloudy
2:55 PM - - - N/A% 29.98 in 10.0 mi West 15.0 mph 20.7 mph N/A   Scattered Clouds
3:14 PM 32.0 °F 22.5 °F 10.4 °F 41% 29.98 in 10.0 mi WNW 12.7 mph - N/A   Clear
3:35 PM 32.0 °F 24.2 °F 12.2 °F 44% 29.98 in 10.0 mi NW 9.2 mph - N/A   Clear
3:55 PM 32.0 °F 23.0 °F 12.2 °F 44% 29.97 in 10.0 mi WNW 11.5 mph - N/A   Clear
4:14 PM 30.2 °F 20.8 °F 12.2 °F 47% 29.97 in 10.0 mi WNW 11.5 mph - N/A   Clear
4:34 PM 30.2 °F 21.9 °F 15.8 °F 55% 29.97 in 10.0 mi West 9.2 mph - N/A   Clear
4:55 PM 32.0 °F 22.5 °F 17.6 °F 55% 29.97 in 10.0 mi West 12.7 mph - N/A   Clear
5:15 PM 26.6 °F 19.1 °F 17.6 °F 69% 29.97 in 10.0 mi West 6.9 mph - N/A   Mostly Cloudy
5:35 PM 26.6 °F 19.1 °F 19.4 °F 74% 29.96 in 10.0 mi West 6.9 mph - N/A   Overcast
5:54 PM 28.4 °F 19.7 °F 19.4 °F 69% 29.96 in 10.0 mi West 9.2 mph - N/A   Overcast
6:14 PM 26.6 °F 22.6 °F 24.8 °F 93% 29.95 in 2.0 mi WNW 3.5 mph - N/A Snow Light Snow
6:35 PM 26.6 °F - 24.8 °F 93% 29.95 in 10.0 mi Calm Calm - N/A   Overcast
7:14 PM 26.6 °F - 24.8 °F 93% 29.94 in 2.5 mi Calm Calm - N/A Snow Light Snow
7:34 PM 26.6 °F - 24.8 °F 93% 29.94 in 10.0 mi Calm Calm - N/A Snow Light Snow
7:55 PM 24.8 °F - 24.8 °F 100% 29.95 in 4.0 mi Calm Calm - N/A Snow Light Snow
8:15 PM 24.8 °F - 24.8 °F 100% 29.95 in 2.0 mi Calm Calm - N/A Snow Light Snow
8:34 PM 24.8 °F 17.9 °F 24.8 °F 100% 29.95 in 10.0 mi NNW 5.8 mph - N/A   Mostly Cloudy
9:15 PM 24.8 °F 19.1 °F 23.0 °F 93% 29.96 in 10.0 mi NW 4.6 mph - N/A   Overcast
9:34 PM 23.0 °F 13.1 °F 21.2 °F 93% 29.96 in 10.0 mi NW 9.2 mph - N/A   Scattered Clouds
9:54 PM 24.8 °F 13.4 °F 21.2 °F 86% 29.97 in 10.0 mi NW 12.7 mph - N/A   Scattered Clouds
10:14 PM 24.8 °F 13.4 °F 21.2 °F 86% 29.97 in 10.0 mi NW 12.7 mph - N/A   Scattered Clouds
10:35 PM 24.8 °F 14.0 °F 21.2 °F 86% 29.98 in 10.0 mi NW 11.5 mph - N/A   Mostly Cloudy
10:55 PM 24.8 °F 14.6 °F 21.2 °F 86% 29.99 in 10.0 mi North 10.4 mph - N/A   Overcast
11:14 PM 21.2 °F 11.7 °F 21.2 °F 100% 30.00 in 10.0 mi North 8.1 mph - N/A Snow Light Snow
11:35 PM 21.2 °F 12.6 °F 21.2 °F 100% 30.01 in 7.0 mi North 6.9 mph - N/A Snow Light Snow
11:54 PM 21.2 °F 11.7 °F 19.4 °F 93% 30.01 in 7.0 mi North 8.1 mph - N/A Snow Light Snow